TimeEDT,TemperatureF,Dew PointF,Humidity,Sea Level PressureIn,VisibilityMPH,Wind Direction,Wind SpeedMPH,Gust SpeedMPH,PrecipitationIn,Events,Conditions,WindDirDegrees,DateUTC
12:15 AM,66.2,62.6,88,30.02,10.0,NE,10.4,16.1,N/A,,Unknown,40,2012-10-09 04:15:00
12:35 AM,66.2,62.6,88,30.02,10.0,NE,10.4,-,N/A,,Unknown,50,2012-10-09 04:35:00
12:55 AM,66.2,62.6,88,30.01,10.0,NE,12.7,-,N/A,,Unknown,50,2012-10-09 04:55:00
1:15 AM,68.0,62.6,83,30.02,10.0,NE,9.2,-,N/A,,Unknown,50,2012-10-09 05:15:00
1:35 AM,68.0,62.6,83,30.04,10.0,ENE,9.2,-,N/A,,Unknown,70,2012-10-09 05:35:00
1:55 AM,68.0,62.6,83,30.04,10.0,NE,6.9,-,N/A,,Unknown,50,2012-10-09 05:55:00
2:15 AM,68.0,62.6,83,30.04,10.0,NE,9.2,-,N/A,,Unknown,50,2012-10-09 06:15:00
2:35 AM,68.0,62.6,83,30.04,10.0,NE,9.2,-,N/A,,Unknown,40,2012-10-09 06:35:00
2:55 AM,68.0,62.6,83,30.03,10.0,NNE,6.9,-,N/A,,Unknown,30,2012-10-09 06:55:00
3:15 AM,68.0,62.6,83,30.02,10.0,NE,5.8,-,N/A,,Unknown,40,2012-10-09 07:15:00
3:35 AM,68.0,62.6,83,30.02,7.0,NNE,4.6,-,N/A,,Unknown,30,2012-10-09 07:35:00
3:55 AM,68.0,62.6,83,30.02,7.0,NNE,4.6,-,N/A,,Unknown,30,2012-10-09 07:55:00
4:15 AM,68.0,64.4,88,30.01,7.0,NNE,4.6,-,N/A,,Unknown,30,2012-10-09 08:15:00
4:35 AM,68.0,64.4,88,30.01,7.0,Calm,Calm,-,N/A,,Unknown,0,2012-10-09 08:35:00
4:55 AM,68.0,64.4,88,30.00,7.0,North,5.8,-,N/A,,Unknown,360,2012-10-09 08:55:00
5:15 AM,68.0,64.4,88,30.00,7.0,NNW,3.5,-,N/A,,Unknown,340,2012-10-09 09:15:00
5:35 AM,68.0,64.4,88,30.01,7.0,WNW,4.6,-,N/A,,Unknown,300,2012-10-09 09:35:00
5:55 AM,68.0,64.4,88,30.01,7.0,NW,5.8,-,N/A,,Unknown,310,2012-10-09 09:55:00
6:15 AM,68.0,62.6,83,30.01,10.0,NW,5.8,-,N/A,,Unknown,310,2012-10-09 10:15:00
6:35 AM,66.2,62.6,88,30.01,7.0,NW,6.9,-,N/A,,Unknown,310,2012-10-09 10:35:00
6:55 AM,66.2,62.6,88,30.02,4.0,NNW,8.1,-,N/A,Rain,Light Rain,330,2012-10-09 10:55:00
7:15 AM,64.4,60.8,88,30.03,7.0,North,9.2,17.3,N/A,,Light Drizzle,350,2012-10-09 11:15:00
7:35 AM,62.6,60.8,94,30.03,10.0,North,10.4,-,N/A,,Unknown,350,2012-10-09 11:35:00
7:55 AM,62.6,60.8,94,30.04,10.0,North,12.7,18.4,N/A,,Unknown,350,2012-10-09 11:55:00
8:15 AM,62.6,60.8,94,30.05,10.0,NNW,13.8,18.4,N/A,,Unknown,340,2012-10-09 12:15:00
8:55 AM,62.6,59.0,88,30.05,5.0,North,15.0,19.6,N/A,,Mist,350,2012-10-09 12:55:00
9:15 AM,62.6,60.8,94,30.06,4.0,North,13.8,18.4,N/A,,Mist,350,2012-10-09 13:15:00
9:35 AM,62.6,60.8,94,30.06,4.0,North,12.7,18.4,N/A,,Mist,360,2012-10-09 13:35:00
9:55 AM,62.6,60.8,94,30.07,5.0,North,10.4,16.1,N/A,,Mist,350,2012-10-09 13:55:00
10:35 AM,64.4,60.8,88,30.06,4.0,North,10.4,18.4,N/A,,Mist,360,2012-10-09 14:35:00
10:55 AM,64.4,60.8,88,30.06,7.0,North,10.4,17.3,N/A,,Unknown,360,2012-10-09 14:55:00
11:15 AM,64.4,62.6,94,30.06,7.0,North,8.1,17.3,N/A,,Unknown,360,2012-10-09 15:15:00
11:35 AM,64.4,62.6,94,30.06,7.0,North,11.5,-,N/A,,Unknown,10,2012-10-09 15:35:00
11:55 AM,66.2,62.6,88,30.05,5.0,North,11.5,19.6,N/A,,Mist,360,2012-10-09 15:55:00
12:15 PM,64.4,62.6,94,30.05,3.0,North,9.2,-,N/A,,Mist,350,2012-10-09 16:15:00
12:35 PM,64.4,62.6,94,30.05,3.0,North,10.4,-,N/A,,Mist,360,2012-10-09 16:35:00
12:55 PM,64.4,62.6,94,30.04,3.0,North,10.4,16.1,N/A,,Mist,360,2012-10-09 16:55:00
1:15 PM,64.4,62.6,94,30.03,4.0,North,15.0,20.7,N/A,,Mist,360,2012-10-09 17:15:00
1:35 PM,66.2,62.6,88,30.03,4.0,North,12.7,-,N/A,,Mist,360,2012-10-09 17:35:00
1:55 PM,66.2,62.6,88,30.03,5.0,North,10.4,16.1,N/A,,Mist,360,2012-10-09 17:55:00
2:15 PM,66.2,62.6,88,30.03,7.0,North,6.9,-,N/A,,Unknown,360,2012-10-09 18:15:00
2:35 PM,64.4,60.8,88,30.03,7.0,North,8.1,-,N/A,,Unknown,350,2012-10-09 18:35:00
2:55 PM,64.4,60.8,88,30.03,7.0,NNW,5.8,-,N/A,,Unknown,330,2012-10-09 18:55:00
3:15 PM,64.4,60.8,88,30.03,7.0,NNW,6.9,-,N/A,,Unknown,330,2012-10-09 19:15:00
3:35 PM,64.4,60.8,88,30.02,7.0,NNW,9.2,-,N/A,,Unknown,340,2012-10-09 19:35:00
3:55 PM,64.4,60.8,88,30.03,7.0,NNW,9.2,-,N/A,,Unknown,340,2012-10-09 19:55:00
4:15 PM,64.4,60.8,88,30.03,10.0,North,10.4,-,N/A,,Unknown,350,2012-10-09 20:15:00
4:35 PM,64.4,60.8,88,30.03,10.0,North,9.2,-,N/A,,Unknown,350,2012-10-09 20:35:00
5:15 PM,64.4,60.8,88,30.02,7.0,North,10.4,-,N/A,,Unknown,350,2012-10-09 21:15:00
5:35 PM,64.4,60.8,88,30.02,7.0,North,8.1,-,N/A,,Unknown,360,2012-10-09 21:35:00
5:55 PM,64.4,60.8,88,30.02,7.0,North,9.2,-,N/A,,Unknown,360,2012-10-09 21:55:00
6:15 PM,64.4,60.8,88,30.02,10.0,NNW,6.9,-,N/A,,Unknown,340,2012-10-09 22:15:00
6:35 PM,64.4,60.8,88,30.02,10.0,North,6.9,-,N/A,,Unknown,350,2012-10-09 22:35:00
6:55 PM,64.4,60.8,88,30.02,10.0,NNW,8.1,-,N/A,,Unknown,340,2012-10-09 22:55:00
7:15 PM,64.4,60.8,88,30.02,10.0,North,6.9,-,N/A,,Unknown,350,2012-10-09 23:15:00
7:35 PM,64.4,60.8,88,30.03,10.0,NNW,9.2,-,N/A,,Unknown,340,2012-10-09 23:35:00
7:55 PM,64.4,60.8,88,30.03,7.0,NNW,5.8,-,N/A,,Unknown,330,2012-10-09 23:55:00
8:15 PM,64.4,60.8,88,30.03,7.0,NW,6.9,-,N/A,,Unknown,320,2012-10-10 00:15:00
8:35 PM,64.4,60.8,88,30.04,10.0,NNW,4.6,-,N/A,,Unknown,330,2012-10-10 00:35:00
8:55 PM,64.4,60.8,88,30.04,10.0,NW,6.9,-,N/A,,Unknown,320,2012-10-10 00:55:00
9:15 PM,64.4,60.8,88,30.04,10.0,NW,5.8,-,N/A,,Unknown,320,2012-10-10 01:15:00
9:35 PM,64.4,60.8,88,30.03,7.0,NNW,5.8,-,N/A,,Unknown,340,2012-10-10 01:35:00
9:55 PM,64.4,60.8,88,30.04,7.0,NNW,4.6,-,N/A,,Unknown,330,2012-10-10 01:55:00
10:15 PM,64.4,60.8,88,30.04,7.0,NNW,5.8,-,N/A,,Unknown,330,2012-10-10 02:15:00
10:35 PM,64.4,60.8,88,30.04,7.0,NW,4.6,-,N/A,,Unknown,320,2012-10-10 02:35:00
10:55 PM,62.6,60.8,94,30.04,7.0,NNW,3.5,-,N/A,,Unknown,330,2012-10-10 02:55:00
11:15 PM,62.6,60.8,94,30.04,10.0,NNW,4.6,-,N/A,,Unknown,330,2012-10-10 03:15:00
11:35 PM,64.4,60.8,88,30.03,10.0,NNW,5.8,-,N/A,,Unknown,330,2012-10-10 03:35:00
11:55 PM,62.6,60.8,94,30.03,10.0,NNW,4.6,-,N/A,,Unknown,330,2012-10-10 03:55:00